Time,TemperatureF,DewpointF,PressureIn,WindDirection,WindDirectionDegrees,WindSpeedMPH,WindSpeedGustMPH,Humidity,HourlyPrecipIn,Conditions,Clouds,dailyrainin,SoftwareType,DateUTC
2013-02-24 00:00:00,39.2,35.4,30.22,SE,135,1.1,1.6,86,0.00,,,0.04,WUHU216HW,2013-02-24 08:00:00,
2013-02-24 00:05:00,39.2,35.1,30.22,ESE,113,0.9,2.2,85,0.00,,,0.00,WUHU216HW,2013-02-24 08:05:00,
2013-02-24 00:10:00,39.2,34.8,30.22,SSE,158,1.3,2.2,84,0.00,,,0.00,WUHU216HW,2013-02-24 08:10:00,
2013-02-24 00:15:00,39.4,35.3,30.22,ESE,113,0.4,2.0,85,0.00,,,0.00,WUHU216HW,2013-02-24 08:15:00,
2013-02-24 00:20:00,39.4,35.3,30.22,East,90,2.0,2.0,85,0.00,,,0.00,WUHU216HW,2013-02-24 08:20:00,
2013-02-24 00:25:00,39.4,35.0,30.22,SW,225,1.6,2.0,84,0.00,,,0.00,WUHU216HW,2013-02-24 08:25:00,
2013-02-24 00:30:00,39.4,35.0,30.22,SE,135,0.0,1.8,84,0.00,,,0.00,WUHU216HW,2013-02-24 08:30:00,
2013-02-24 00:35:00,39.4,35.0,30.22,SE,135,0.2,1.8,84,0.00,,,0.00,WUHU216HW,2013-02-24 08:35:00,
2013-02-24 00:40:00,39.4,35.0,30.22,SE,135,0.0,2.5,84,0.00,,,0.00,WUHU216HW,2013-02-24 08:40:00,
2013-02-24 00:45:00,39.2,35.1,30.22,SSE,158,1.8,2.5,85,0.00,,,0.00,WUHU216HW,2013-02-24 08:45:00,
2013-02-24 00:50:00,39.4,35.0,30.23,South,180,0.9,3.1,84,0.00,,,0.00,WUHU216HW,2013-02-24 08:50:00,
2013-02-24 00:55:00,39.6,35.2,30.23,South,180,0.4,3.1,84,0.00,,,0.00,WUHU216HW,2013-02-24 08:55:00,
2013-02-24 01:00:00,39.6,35.2,30.22,SE,135,1.8,1.8,84,0.00,,,0.00,WUHU216HW,2013-02-24 09:00:00,
2013-02-24 01:05:00,39.6,35.2,30.22,SE,135,2.5,3.8,84,0.00,,,0.00,WUHU216HW,2013-02-24 09:05:00,
2013-02-24 01:10:00,39.4,35.0,30.22,South,180,0.9,3.8,84,0.00,,,0.00,WUHU216HW,2013-02-24 09:10:00,
2013-02-24 01:15:00,39.4,35.3,30.22,ENE,68,1.3,2.5,85,0.00,,,0.00,WUHU216HW,2013-02-24 09:15:00,
2013-02-24 01:20:00,39.4,35.0,30.22,South,180,0.7,1.8,84,0.00,,,0.00,WUHU216HW,2013-02-24 09:20:00,
2013-02-24 01:25:00,39.4,35.0,30.22,SSW,203,1.1,2.0,84,0.00,,,0.00,WUHU216HW,2013-02-24 09:25:00,
2013-02-24 01:30:00,39.6,35.2,30.22,WSW,248,2.5,3.1,84,0.00,,,0.00,WUHU216HW,2013-02-24 09:30:00,
2013-02-24 01:35:00,39.8,35.3,30.22,SSW,203,1.8,3.1,84,0.00,,,0.00,WUHU216HW,2013-02-24 09:35:00,
2013-02-24 01:40:00,39.6,35.2,30.22,SSW,203,0.4,1.8,84,0.00,,,0.00,WUHU216HW,2013-02-24 09:40:00,
2013-02-24 01:45:00,39.6,35.2,30.22,SSW,203,0.2,2.5,84,0.00,,,0.00,WUHU216HW,2013-02-24 09:45:00,
2013-02-24 01:50:00,39.6,35.2,30.22,SSE,158,1.1,3.4,84,0.00,,,0.00,WUHU216HW,2013-02-24 09:50:00,
2013-02-24 01:55:00,39.6,35.2,30.22,SSE,158,1.8,3.4,84,0.00,,,0.00,WUHU216HW,2013-02-24 09:55:00,
2013-02-24 02:00:00,39.8,35.3,30.22,SSE,158,2.5,3.4,84,0.00,,,0.00,WUHU216HW,2013-02-24 10:00:00,
2013-02-24 02:05:00,39.6,35.2,30.22,South,180,2.5,3.6,84,0.00,,,0.00,WUHU216HW,2013-02-24 10:05:00,
2013-02-24 02:10:00,39.6,35.2,30.22,South,180,2.5,3.6,84,0.00,,,0.00,WUHU216HW,2013-02-24 10:10:00,
2013-02-24 02:15:00,39.6,35.2,30.22,SSW,203,0.4,3.4,84,0.00,,,0.00,WUHU216HW,2013-02-24 10:15:00,
2013-02-24 02:20:00,39.6,35.2,30.22,SSE,158,1.8,2.7,84,0.00,,,0.00,WUHU216HW,2013-02-24 10:20:00,
2013-02-24 02:25:00,39.8,35.3,30.22,SSW,203,1.8,3.4,84,0.00,,,0.00,WUHU216HW,2013-02-24 10:25:00,
2013-02-24 02:30:00,39.8,35.3,30.22,SE,135,2.0,3.4,84,0.00,,,0.00,WUHU216HW,2013-02-24 10:30:00,
2013-02-24 02:35:00,39.8,35.3,30.22,SSW,203,1.3,3.8,84,0.00,,,0.00,WUHU216HW,2013-02-24 10:35:00,
2013-02-24 02:40:00,39.8,35.3,30.22,SE,135,1.8,3.8,84,0.00,,,0.00,WUHU216HW,2013-02-24 10:40:00,
2013-02-24 02:45:00,39.6,35.2,30.22,SSW,203,1.1,2.0,84,0.00,,,0.00,WUHU216HW,2013-02-24 10:45:00,
2013-02-24 02:50:00,39.6,35.2,30.22,SSE,158,0.7,2.0,84,0.00,,,0.00,WUHU216HW,2013-02-24 10:50:00,
2013-02-24 02:55:00,39.6,35.2,30.22,South,180,2.0,2.0,84,0.00,,,0.00,WUHU216HW,2013-02-24 10:55:00,
2013-02-24 03:00:00,39.8,34.8,30.22,SSW,203,3.6,3.6,82,0.00,,,0.00,WUHU216HW,2013-02-24 11:00:00,
2013-02-24 03:04:00,40.0,35.2,30.22,South,180,1.3,4.7,83,0.00,,,0.00,WUHU216HW,2013-02-24 11:04:00,
2013-02-24 03:09:00,40.0,35.2,30.22,South,180,2.7,5.4,83,0.00,,,0.00,WUHU216HW,2013-02-24 11:09:00,
2013-02-24 03:14:00,40.1,35.1,30.22,SSE,158,1.3,5.4,82,0.00,,,0.00,WUHU216HW,2013-02-24 11:14:00,
2013-02-24 03:19:00,40.0,34.9,30.22,South,180,2.2,4.3,82,0.00,,,0.00,WUHU216HW,2013-02-24 11:19:00,
2013-02-24 03:24:00,40.0,35.2,30.22,SSW,203,1.8,3.4,83,0.00,,,0.00,WUHU216HW,2013-02-24 11:24:00,
2013-02-24 03:29:00,40.0,35.2,30.22,SSW,203,2.7,5.4,83,0.00,,,0.00,WUHU216HW,2013-02-24 11:29:00,
2013-02-24 03:34:00,40.0,35.2,30.22,SSE,158,3.4,5.4,83,0.00,,,0.00,WUHU216HW,2013-02-24 11:34:00,
2013-02-24 03:39:00,39.8,35.3,30.22,WSW,248,4.5,4.5,84,0.00,,,0.00,WUHU216HW,2013-02-24 11:39:00,
2013-02-24 03:44:00,40.0,35.2,30.22,South,180,1.8,4.5,83,0.00,,,0.00,WUHU216HW,2013-02-24 11:44:00,
2013-02-24 03:49:00,40.0,35.5,30.22,South,180,3.4,3.4,84,0.00,,,0.00,WUHU216HW,2013-02-24 11:49:00,
2013-02-24 03:54:00,39.8,35.3,30.22,SSE,158,4.0,5.4,84,0.00,,,0.00,WUHU216HW,2013-02-24 11:54:00,
2013-02-24 03:59:00,39.8,35.3,30.22,South,180,0.7,5.4,84,0.00,,,0.00,WUHU216HW,2013-02-24 11:59:00,
2013-02-24 04:04:00,39.6,35.2,30.22,ESE,113,1.8,4.3,84,0.00,,,0.00,WUHU216HW,2013-02-24 12:04:00,
2013-02-24 04:09:00,39.6,35.7,30.22,SE,135,2.5,4.3,86,0.00,,,0.00,WUHU216HW,2013-02-24 12:09:00,
2013-02-24 04:14:00,39.2,35.4,30.22,ESE,113,1.8,2.5,86,0.00,,,0.00,WUHU216HW,2013-02-24 12:14:00,
2013-02-24 04:19:00,39.2,35.6,30.22,SE,135,3.4,3.4,87,0.00,,,0.00,WUHU216HW,2013-02-24 12:19:00,
2013-02-24 04:24:00,39.1,35.5,30.22,SSE,158,2.5,3.4,87,0.00,,,0.00,WUHU216HW,2013-02-24 12:24:00,
2013-02-24 04:29:00,38.9,35.9,30.22,ESE,113,0.9,2.9,89,0.00,,,0.00,WUHU216HW,2013-02-24 12:29:00,
2013-02-24 04:34:00,38.9,35.9,30.22,SE,135,1.8,2.9,89,0.00,,,0.00,WUHU216HW,2013-02-24 12:34:00,
2013-02-24 04:39:00,38.9,35.7,30.21,ESE,113,3.4,3.4,88,0.00,,,0.00,WUHU216HW,2013-02-24 12:39:00,
2013-02-24 04:44:00,38.7,35.7,30.21,ENE,68,1.8,3.4,89,0.00,,,0.00,WUHU216HW,2013-02-24 12:44:00,
2013-02-24 04:49:00,38.7,35.7,30.21,SE,135,1.6,1.8,89,0.00,,,0.00,WUHU216HW,2013-02-24 12:49:00,
2013-02-24 04:54:00,38.5,35.6,30.21,SSE,158,1.1,1.8,89,0.00,,,0.00,WUHU216HW,2013-02-24 12:54:00,
2013-02-24 04:59:00,38.5,35.6,30.21,SSE,158,1.1,1.8,89,0.00,,,0.00,WUHU216HW,2013-02-24 12:59:00,
2013-02-24 05:04:00,38.3,35.6,30.21,SE,135,1.6,1.6,90,0.00,,,0.00,WUHU216HW,2013-02-24 13:04:00,
2013-02-24 05:09:00,38.3,35.6,30.21,ESE,113,0.2,1.6,90,0.00,,,0.00,WUHU216HW,2013-02-24 13:09:00,
2013-02-24 05:14:00,38.2,35.5,30.20,ESE,113,1.1,2.0,90,0.00,,,0.00,WUHU216HW,2013-02-24 13:14:00,
2013-02-24 05:19:00,38.2,35.5,30.20,SE,135,0.4,2.0,90,0.00,,,0.00,WUHU216HW,2013-02-24 13:19:00,
2013-02-24 05:24:00,38.2,35.2,30.20,ESE,113,0.0,1.1,89,0.00,,,0.00,WUHU216HW,2013-02-24 13:24:00,
2013-02-24 05:29:00,38.2,35.5,30.20,SE,135,0.0,0.7,90,0.00,,,0.00,WUHU216HW,2013-02-24 13:29:00,
2013-02-24 05:34:00,38.0,35.3,30.20,East,90,1.3,1.3,90,0.00,,,0.00,WUHU216HW,2013-02-24 13:34:00,
2013-02-24 05:39:00,38.2,35.5,30.20,SE,135,0.4,3.1,90,0.00,,,0.00,WUHU216HW,2013-02-24 13:39:00,
2013-02-24 05:44:00,38.2,35.5,30.20,ENE,68,0.4,3.1,90,0.00,,,0.00,WUHU216HW,2013-02-24 13:44:00,
2013-02-24 05:50:00,38.3,35.6,30.20,SSE,158,1.8,1.8,90,0.00,,,0.00,WUHU216HW,2013-02-24 13:50:00,
2013-02-24 05:55:00,38.3,35.4,30.20,ESE,113,2.5,2.5,89,0.00,,,0.00,WUHU216HW,2013-02-24 13:55:00,
2013-02-24 06:00:00,38.5,35.8,30.20,ENE,68,0.4,2.5,90,0.00,,,0.00,WUHU216HW,2013-02-24 14:00:00,
2013-02-24 06:05:00,38.5,35.6,30.20,SSW,203,0.9,2.5,89,0.00,,,0.00,WUHU216HW,2013-02-24 14:05:00,
2013-02-24 06:10:00,38.5,35.6,30.20,East,90,1.1,2.5,89,0.00,,,0.00,WUHU216HW,2013-02-24 14:10:00,
2013-02-24 06:15:00,38.5,35.6,30.20,ENE,68,1.1,1.6,89,0.00,,,0.00,WUHU216HW,2013-02-24 14:15:00,
2013-02-24 06:20:00,38.5,35.6,30.19,NE,45,1.6,1.6,89,0.00,,,0.00,WUHU216HW,2013-02-24 14:20:00,
2013-02-24 06:25:00,38.5,35.6,30.19,SSE,158,0.4,1.6,89,0.00,,,0.00,WUHU216HW,2013-02-24 14:25:00,
2013-02-24 06:30:00,38.5,35.8,30.19,East,90,0.9,1.6,90,0.00,,,0.00,WUHU216HW,2013-02-24 14:30:00,
2013-02-24 06:35:00,38.5,35.6,30.19,South,180,0.2,1.1,89,0.00,,,0.00,WUHU216HW,2013-02-24 14:35:00,
2013-02-24 06:40:00,38.5,35.6,30.19,South,180,1.1,1.8,89,0.00,,,0.00,WUHU216HW,2013-02-24 14:40:00,
2013-02-24 06:45:00,38.3,35.4,30.20,East,90,0.2,1.8,89,0.00,,,0.00,WUHU216HW,2013-02-24 14:45:00,
2013-02-24 06:50:00,38.2,35.5,30.19,NNW,338,0.0,3.1,90,0.00,,,0.00,WUHU216HW,2013-02-24 14:50:00,
2013-02-24 06:55:00,38.2,35.2,30.19,SSW,203,0.4,3.1,89,0.00,,,0.00,WUHU216HW,2013-02-24 14:55:00,
2013-02-24 07:00:00,38.2,35.5,30.19,ESE,113,1.1,1.6,90,0.00,,,0.00,WUHU216HW,2013-02-24 15:00:00,
2013-02-24 07:05:00,38.3,35.6,30.19,South,180,0.7,1.6,90,0.00,,,0.00,WUHU216HW,2013-02-24 15:05:00,
2013-02-24 07:10:00,38.3,35.6,30.19,ESE,113,1.6,1.6,90,0.00,,,0.00,WUHU216HW,2013-02-24 15:10:00,
2013-02-24 07:15:00,38.3,35.6,30.19,South,180,3.1,3.1,90,0.00,,,0.00,WUHU216HW,2013-02-24 15:15:00,
2013-02-24 07:20:00,38.5,35.6,30.19,SE,135,1.1,3.1,89,0.00,,,0.00,WUHU216HW,2013-02-24 15:20:00,
2013-02-24 07:25:00,38.7,35.7,30.19,SSE,158,3.1,4.0,89,0.00,,,0.00,WUHU216HW,2013-02-24 15:25:00,
2013-02-24 07:30:00,38.7,35.7,30.19,East,90,1.8,4.0,89,0.00,,,0.00,WUHU216HW,2013-02-24 15:30:00,
2013-02-24 07:35:00,38.7,35.7,30.19,SE,135,2.0,3.4,89,0.00,,,0.00,WUHU216HW,2013-02-24 15:35:00,
2013-02-24 07:40:00,38.9,35.9,30.19,SE,135,0.4,4.5,89,0.00,,,0.00,WUHU216HW,2013-02-24 15:40:00,
2013-02-24 07:45:00,38.9,35.9,30.19,SSW,203,2.0,4.5,89,0.00,,,0.00,WUHU216HW,2013-02-24 15:45:00,
2013-02-24 07:50:00,38.9,35.9,30.19,South,180,1.3,2.5,89,0.00,,,0.00,WUHU216HW,2013-02-24 15:50:00,
2013-02-24 07:55:00,38.9,35.9,30.19,SW,225,1.1,2.5,89,0.00,,,0.00,WUHU216HW,2013-02-24 15:55:00,
2013-02-24 08:00:00,38.9,35.9,30.19,ESE,113,0.0,1.1,89,0.00,,,0.00,WUHU216HW,2013-02-24 16:00:00,
2013-02-24 08:05:00,38.9,35.9,30.19,ESE,113,0.4,1.1,89,0.00,,,0.00,WUHU216HW,2013-02-24 16:05:00,
2013-02-24 08:10:00,38.9,36.2,30.19,South,180,0.0,1.1,90,0.00,,,0.00,WUHU216HW,2013-02-24 16:10:00,
2013-02-24 08:15:00,39.1,36.1,30.19,SSW,203,0.0,0.4,89,0.00,,,0.00,WUHU216HW,2013-02-24 16:15:00,
2013-02-24 08:20:00,39.1,36.4,30.19,SSE,158,0.0,0.4,90,0.00,,,0.00,WUHU216HW,2013-02-24 16:20:00,
2013-02-24 08:25:00,39.2,36.5,30.19,South,180,0.0,0.4,90,0.00,,,0.00,WUHU216HW,2013-02-24 16:25:00,
2013-02-24 08:30:00,39.2,36.5,30.19,SSE,158,0.0,0.2,90,0.00,,,0.00,WUHU216HW,2013-02-24 16:30:00,
2013-02-24 08:35:00,39.6,36.9,30.19,South,180,0.7,0.7,90,0.00,,,0.00,WUHU216HW,2013-02-24 16:35:00,
2013-02-24 08:40:00,39.8,36.8,30.19,SSE,158,0.0,1.8,89,0.00,,,0.00,WUHU216HW,2013-02-24 16:40:00,
2013-02-24 08:45:00,40.0,36.6,30.19,SW,225,0.7,1.8,88,0.00,,,0.00,WUHU216HW,2013-02-24 16:45:00,
2013-02-24 08:50:00,40.0,36.6,30.19,South,180,0.4,2.5,88,0.00,,,0.00,WUHU216HW,2013-02-24 16:50:00,
2013-02-24 08:55:00,40.3,36.7,30.19,South,180,0.9,2.5,87,0.00,,,0.00,WUHU216HW,2013-02-24 16:55:00,
2013-02-24 09:00:00,40.7,37.1,30.19,SSW,203,0.2,2.0,87,0.00,,,0.00,WUHU216HW,2013-02-24 17:00:00,
2013-02-24 09:05:00,40.9,37.3,30.19,SSE,158,1.8,2.5,87,0.00,,,0.00,WUHU216HW,2013-02-24 17:05:00,
2013-02-24 09:10:00,41.0,37.5,30.19,WSW,248,0.4,2.5,87,0.00,,,0.00,WUHU216HW,2013-02-24 17:10:00,
2013-02-24 09:15:00,41.2,37.6,30.19,SW,225,1.1,2.5,87,0.00,,,0.00,WUHU216HW,2013-02-24 17:15:00,
2013-02-24 09:20:00,41.4,37.8,30.19,SW,225,0.9,2.5,87,0.00,,,0.00,WUHU216HW,2013-02-24 17:20:00,
2013-02-24 09:25:00,41.8,37.5,30.18,South,180,1.6,4.0,85,0.00,,,0.00,WUHU216HW,2013-02-24 17:25:00,
2013-02-24 09:30:00,42.1,37.9,30.18,East,90,0.7,4.0,85,0.00,,,0.00,WUHU216HW,2013-02-24 17:30:00,
2013-02-24 09:35:00,42.5,38.3,30.18,SE,135,1.8,2.2,85,0.00,,,0.00,WUHU216HW,2013-02-24 17:35:00,
2013-02-24 09:40:00,42.7,38.4,30.18,SSW,203,1.8,3.4,85,0.00,,,0.00,WUHU216HW,2013-02-24 17:40:00,
2013-02-24 09:45:00,42.8,38.4,30.18,SSW,203,2.0,3.4,84,0.00,,,0.00,WUHU216HW,2013-02-24 17:45:00,
2013-02-24 09:50:00,43.2,38.3,30.18,SW,225,1.6,2.7,83,0.00,,,0.00,WUHU216HW,2013-02-24 17:50:00,
2013-02-24 09:55:00,43.6,38.7,30.18,SSE,158,1.8,3.6,83,0.00,,,0.00,WUHU216HW,2013-02-24 17:55:00,
2013-02-24 10:00:00,43.9,39.1,30.18,SSW,203,1.1,3.6,83,0.00,,,0.00,WUHU216HW,2013-02-24 18:00:00,
2013-02-24 10:05:00,44.5,39.3,30.17,WSW,248,1.8,2.9,82,0.00,,,0.00,WUHU216HW,2013-02-24 18:05:00,
2013-02-24 10:10:00,44.6,39.2,30.17,SE,135,2.0,3.4,81,0.00,,,0.00,WUHU216HW,2013-02-24 18:10:00,
2013-02-24 10:15:00,45.4,39.2,30.17,SSE,158,4.0,4.0,79,0.00,,,0.00,WUHU216HW,2013-02-24 18:15:00,
2013-02-24 10:20:00,45.7,39.6,30.17,SE,135,1.6,4.9,79,0.00,,,0.00,WUHU216HW,2013-02-24 18:20:00,
2013-02-24 10:25:00,45.9,39.4,30.17,WSW,248,3.6,4.9,78,0.00,,,0.00,WUHU216HW,2013-02-24 18:25:00,
2013-02-24 10:30:00,45.7,38.3,30.17,South,180,1.1,5.4,75,0.00,,,0.00,WUHU216HW,2013-02-24 18:30:00,
2013-02-24 10:35:00,46.1,39.6,30.17,SSE,158,2.5,5.4,78,0.00,,,0.00,WUHU216HW,2013-02-24 18:35:00,
2013-02-24 10:40:00,46.4,40.0,30.17,SSW,203,2.5,4.9,78,0.00,,,0.00,WUHU216HW,2013-02-24 18:40:00,
2013-02-24 10:45:00,47.0,40.1,30.17,SSW,203,4.0,4.9,77,0.00,,,0.00,WUHU216HW,2013-02-24 18:45:00,
2013-02-24 10:50:00,47.3,39.1,30.16,South,180,3.8,6.5,73,0.00,,,0.00,WUHU216HW,2013-02-24 18:50:00,
2013-02-24 10:55:00,47.3,38.8,30.16,SE,135,4.9,6.5,72,0.00,,,0.00,WUHU216HW,2013-02-24 18:55:00,
2013-02-24 11:00:00,47.0,37.7,30.16,East,90,2.2,6.0,70,0.00,,,0.00,WUHU216HW,2013-02-24 19:00:00,
2013-02-24 11:05:00,46.8,37.9,30.16,SE,135,4.0,6.0,71,0.00,,,0.00,WUHU216HW,2013-02-24 19:05:00,
2013-02-24 11:10:00,46.6,38.1,30.16,SSW,203,1.8,4.0,72,0.00,,,0.00,WUHU216HW,2013-02-24 19:10:00,
2013-02-24 11:15:00,46.4,37.6,30.16,South,180,2.0,5.1,71,0.00,,,0.00,WUHU216HW,2013-02-24 19:15:00,
2013-02-24 11:20:00,46.6,38.4,30.16,SSW,203,4.5,5.1,73,0.00,,,0.00,WUHU216HW,2013-02-24 19:20:00,
2013-02-24 11:25:00,46.8,38.3,30.16,SSW,203,5.4,5.4,72,0.00,,,0.00,WUHU216HW,2013-02-24 19:25:00,
2013-02-24 11:30:00,46.8,37.9,30.16,SE,135,2.0,5.8,71,0.00,,,0.00,WUHU216HW,2013-02-24 19:30:00,
2013-02-24 11:35:00,46.6,36.6,30.15,SSW,203,3.6,8.3,68,0.00,,,0.00,WUHU216HW,2013-02-24 19:35:00,
2013-02-24 11:40:00,46.6,37.5,30.15,West,270,8.1,8.3,70,0.00,,,0.00,WUHU216HW,2013-02-24 19:40:00,
2013-02-24 11:45:00,46.8,37.2,30.15,SW,225,1.6,8.1,69,0.00,,,0.00,WUHU216HW,2013-02-24 19:45:00,
2013-02-24 11:50:00,47.0,37.7,30.15,South,180,1.8,5.4,70,0.00,,,0.00,WUHU216HW,2013-02-24 19:50:00,
2013-02-24 11:55:00,47.3,37.7,30.15,South,180,2.7,5.4,69,0.00,,,0.00,WUHU216HW,2013-02-24 19:55:00,
2013-02-24 12:00:00,47.7,38.0,30.15,South,180,2.9,6.9,69,0.00,,,0.00,WUHU216HW,2013-02-24 20:00:00,
2013-02-24 12:05:00,47.5,37.9,30.14,SW,225,2.5,6.9,69,0.00,,,0.00,WUHU216HW,2013-02-24 20:05:00,
2013-02-24 12:10:00,47.3,37.3,30.14,ESE,113,1.1,6.5,68,0.00,,,0.00,WUHU216HW,2013-02-24 20:10:00,
2013-02-24 12:15:00,47.5,38.3,30.14,SSW,203,6.3,6.5,70,0.00,,,0.00,WUHU216HW,2013-02-24 20:15:00,
2013-02-24 12:20:00,47.3,38.1,30.14,SW,225,4.9,6.3,70,0.00,,,0.00,WUHU216HW,2013-02-24 20:20:00,
2013-02-24 12:25:00,47.7,38.4,30.14,SW,225,1.3,8.7,70,0.00,,,0.00,WUHU216HW,2013-02-24 20:25:00,
2013-02-24 12:30:00,47.5,38.6,30.13,SSW,203,0.4,8.7,71,0.00,,,0.00,WUHU216HW,2013-02-24 20:30:00,
2013-02-24 12:35:00,47.7,38.4,30.13,SSE,158,0.4,4.0,70,0.00,,,0.00,WUHU216HW,2013-02-24 20:35:00,
2013-02-24 12:40:00,47.7,38.0,30.13,WSW,248,3.4,6.3,69,0.00,,,0.00,WUHU216HW,2013-02-24 20:40:00,
2013-02-24 12:45:00,48.1,37.6,30.13,South,180,3.1,6.3,67,0.00,,,0.00,WUHU216HW,2013-02-24 20:45:00,
2013-02-24 12:50:00,48.1,38.4,30.13,WSW,248,2.0,3.4,69,0.00,,,0.00,WUHU216HW,2013-02-24 20:50:00,
2013-02-24 12:55:00,48.1,38.0,30.12,SE,135,3.8,5.4,68,0.00,,,0.00,WUHU216HW,2013-02-24 20:55:00,
2013-02-24 13:00:00,47.9,37.5,30.12,SSW,203,6.3,8.1,67,0.00,,,0.00,WUHU216HW,2013-02-24 21:00:00,
2013-02-24 13:05:00,47.9,37.8,30.12,SSW,203,6.3,8.1,68,0.00,,,0.00,WUHU216HW,2013-02-24 21:05:00,
2013-02-24 13:10:00,47.9,37.8,30.12,SSW,203,3.6,6.9,68,0.00,,,0.00,WUHU216HW,2013-02-24 21:10:00,
2013-02-24 13:15:00,47.5,37.4,30.12,South,180,6.0,6.7,68,0.00,,,0.00,WUHU216HW,2013-02-24 21:15:00,
2013-02-24 13:20:00,47.0,37.7,30.12,SW,225,5.8,6.3,70,0.00,,,0.00,WUHU216HW,2013-02-24 21:20:00,
2013-02-24 13:25:00,46.8,37.9,30.11,SSE,158,6.7,6.7,71,0.00,,,0.00,WUHU216HW,2013-02-24 21:25:00,
2013-02-24 13:30:00,46.6,38.4,30.11,South,180,2.0,6.7,73,0.00,,,0.00,WUHU216HW,2013-02-24 21:30:00,
2013-02-24 13:35:00,46.8,38.6,30.11,South,180,2.2,6.5,73,0.00,,,0.00,WUHU216HW,2013-02-24 21:35:00,
2013-02-24 13:40:00,46.8,38.3,30.11,SSW,203,2.9,4.3,72,0.00,,,0.00,WUHU216HW,2013-02-24 21:40:00,
2013-02-24 13:45:00,46.8,37.9,30.11,SSE,158,4.7,4.7,71,0.00,,,0.00,WUHU216HW,2013-02-24 21:45:00,
2013-02-24 13:50:00,47.2,38.6,30.10,SSW,203,1.8,4.7,72,0.00,,,0.00,WUHU216HW,2013-02-24 21:50:00,
2013-02-24 13:55:00,47.7,38.0,30.10,SSW,203,3.8,4.7,69,0.00,,,0.00,WUHU216HW,2013-02-24 21:55:00,
2013-02-24 14:00:00,47.9,38.9,30.10,SSE,158,3.8,4.0,71,0.00,,,0.00,WUHU216HW,2013-02-24 22:00:00,
2013-02-24 14:05:00,47.9,37.8,30.09,South,180,2.2,3.8,68,0.00,,,0.00,WUHU216HW,2013-02-24 22:05:00,
2013-02-24 14:10:00,47.9,37.8,30.09,SW,225,2.5,4.5,68,0.00,,,0.00,WUHU216HW,2013-02-24 22:10:00,
2013-02-24 14:15:00,47.9,37.8,30.09,South,180,2.5,4.5,68,0.00,,,0.00,WUHU216HW,2013-02-24 22:15:00,
2013-02-24 14:20:00,47.9,37.8,30.09,SSE,158,0.2,4.0,68,0.00,,,0.00,WUHU216HW,2013-02-24 22:20:00,
2013-02-24 14:25:00,47.9,38.5,30.08,East,90,2.2,4.0,70,0.00,,,0.00,WUHU216HW,2013-02-24 22:25:00,
2013-02-24 14:30:00,47.9,38.5,30.09,SW,225,2.2,3.4,70,0.00,,,0.00,WUHU216HW,2013-02-24 22:30:00,
2013-02-24 14:35:00,47.7,37.6,30.08,ENE,68,1.1,2.2,68,0.00,,,0.00,WUHU216HW,2013-02-24 22:35:00,
2013-02-24 14:40:00,47.5,38.3,30.08,WNW,293,1.6,1.8,70,0.00,,,0.00,WUHU216HW,2013-02-24 22:40:00,
2013-02-24 14:45:00,47.3,37.3,30.07,SSW,203,2.0,3.6,68,0.00,,,0.00,WUHU216HW,2013-02-24 22:45:00,
2013-02-24 14:50:00,47.0,37.0,30.07,SSE,158,3.4,3.6,68,0.00,,,0.00,WUHU216HW,2013-02-24 22:50:00,
2013-02-24 14:55:00,46.8,37.6,30.07,SSE,158,3.8,5.4,70,0.00,,,0.00,WUHU216HW,2013-02-24 22:55:00,
2013-02-24 15:00:00,47.0,38.1,30.07,WSW,248,0.4,5.4,71,0.00,,,0.00,WUHU216HW,2013-02-24 23:00:00,
2013-02-24 15:05:00,47.2,38.3,30.07,South,180,4.0,4.0,71,0.00,,,0.00,WUHU216HW,2013-02-24 23:05:00,
2013-02-24 15:10:00,46.6,38.1,30.07,SSE,158,1.3,4.5,72,0.00,,,0.00,WUHU216HW,2013-02-24 23:10:00,
2013-02-24 15:15:00,45.9,38.4,30.06,ESE,113,0.4,4.5,75,0.00,,,0.00,WUHU216HW,2013-02-24 23:15:00,
2013-02-24 15:20:00,45.7,38.6,30.06,NNE,23,0.2,3.4,76,0.00,,,0.00,WUHU216HW,2013-02-24 23:20:00,
2013-02-24 15:25:00,45.4,38.6,30.06,SE,135,0.0,1.3,77,0.00,,,0.00,WUHU216HW,2013-02-24 23:25:00,
2013-02-24 15:30:00,45.4,39.2,30.06,NW,315,0.4,1.3,79,0.00,,,0.00,WUHU216HW,2013-02-24 23:30:00,
2013-02-24 15:35:00,45.2,39.7,30.06,East,90,0.9,1.3,81,0.00,,,0.00,WUHU216HW,2013-02-24 23:35:00,
2013-02-24 15:40:00,45.4,39.6,30.06,South,180,0.0,1.1,80,0.00,,,0.00,WUHU216HW,2013-02-24 23:40:00,
2013-02-24 15:45:00,45.4,39.9,30.05,SSE,158,1.1,1.1,81,0.00,,,0.00,WUHU216HW,2013-02-24 23:45:00,
2013-02-24 15:50:00,45.7,40.0,30.05,WSW,248,0.0,1.6,80,0.00,,,0.00,WUHU216HW,2013-02-24 23:50:00,
2013-02-24 15:55:00,45.5,40.1,30.05,East,90,0.4,1.6,81,0.00,,,0.00,WUHU216HW,2013-02-24 23:55:00,
2013-02-24 16:00:00,45.5,40.1,30.05,SSW,203,0.4,1.1,81,0.00,,,0.00,WUHU216HW,2013-02-25 00:00:00,
2013-02-24 16:05:00,45.7,40.0,30.04,SE,135,0.2,1.1,80,0.00,,,0.00,WUHU216HW,2013-02-25 00:05:00,
2013-02-24 16:10:00,45.7,40.0,30.04,WSW,248,0.7,1.3,80,0.00,,,0.00,WUHU216HW,2013-02-25 00:10:00,
2013-02-24 16:15:00,45.7,40.0,30.04,SE,135,0.7,2.5,80,0.00,,,0.00,WUHU216HW,2013-02-25 00:15:00,
2013-02-24 16:20:00,45.7,40.0,30.04,WSW,248,0.4,2.5,80,0.00,,,0.00,WUHU216HW,2013-02-25 00:20:00,
2013-02-24 16:25:00,45.7,40.0,30.04,SSW,203,2.2,2.2,80,0.00,,,0.00,WUHU216HW,2013-02-25 00:25:00,
2013-02-24 16:30:00,45.7,40.0,30.03,SSW,203,0.2,2.2,80,0.00,,,0.00,WUHU216HW,2013-02-25 00:30:00,
2013-02-24 16:35:00,45.7,39.6,30.03,South,180,1.6,1.8,79,0.00,,,0.00,WUHU216HW,2013-02-25 00:35:00,
2013-02-24 16:40:00,45.5,39.4,30.03,WSW,248,0.0,1.6,79,0.00,,,0.00,WUHU216HW,2013-02-25 00:40:00,
2013-02-24 16:45:00,45.4,39.2,30.03,WSW,248,0.0,1.3,79,0.00,,,0.00,WUHU216HW,2013-02-25 00:45:00,
2013-02-24 16:50:00,45.4,39.9,30.02,SE,135,0.0,1.1,81,0.00,,,0.00,WUHU216HW,2013-02-25 00:50:00,
2013-02-24 16:55:00,45.2,39.4,30.02,SSW,203,0.7,2.0,80,0.00,,,0.00,WUHU216HW,2013-02-25 00:55:00,
2013-02-24 17:00:00,45.0,39.5,30.02,SSE,158,0.0,2.0,81,0.00,,,0.00,WUHU216HW,2013-02-25 01:00:00,
2013-02-24 17:05:00,45.0,39.5,30.01,ESE,113,0.9,1.3,81,0.00,,,0.00,WUHU216HW,2013-02-25 01:05:00,
2013-02-24 17:10:00,44.8,39.3,30.01,ESE,113,0.0,1.3,81,0.00,,,0.00,WUHU216HW,2013-02-25 01:10:00,
2013-02-24 17:15:00,44.6,39.8,30.01,ESE,113,0.4,0.4,83,0.00,,,0.00,WUHU216HW,2013-02-25 01:15:00,
2013-02-24 17:20:00,44.5,39.6,30.01,ESE,113,0.0,0.4,83,0.00,,,0.00,WUHU216HW,2013-02-25 01:20:00,
2013-02-24 17:25:00,44.3,39.4,30.01,ESE,113,0.0,0.0,83,0.00,,,0.00,WUHU216HW,2013-02-25 01:25:00,
2013-02-24 17:30:00,44.1,39.6,30.00,ESE,113,0.0,0.0,84,0.00,,,0.00,WUHU216HW,2013-02-25 01:30:00,
2013-02-24 17:35:00,43.9,39.1,30.00,ESE,113,0.0,0.0,83,0.00,,,0.00,WUHU216HW,2013-02-25 01:35:00,
2013-02-24 17:40:00,43.7,39.8,30.00,ESE,113,0.0,0.0,86,0.00,,,0.00,WUHU216HW,2013-02-25 01:40:00,
2013-02-24 17:45:00,43.6,39.6,30.00,NNE,23,0.0,0.0,86,0.00,,,0.00,WUHU216HW,2013-02-25 01:45:00,
2013-02-24 17:50:00,43.2,39.6,29.99,ESE,113,1.6,1.6,87,0.01,,,0.01,WUHU216HW,2013-02-25 01:50:00,
2013-02-24 17:55:00,43.0,38.8,29.99,East,90,0.9,2.5,85,0.01,,,0.01,WUHU216HW,2013-02-25 01:55:00,
2013-02-24 18:00:00,42.8,38.6,29.99,ESE,113,1.1,2.5,85,0.01,,,0.01,WUHU216HW,2013-02-25 02:00:00,
2013-02-24 18:05:00,42.7,38.7,29.99,ESE,113,0.2,1.3,86,0.01,,,0.01,WUHU216HW,2013-02-25 02:05:00,
2013-02-24 18:10:00,42.3,39.0,29.98,ENE,68,1.8,3.4,88,0.01,,,0.01,WUHU216HW,2013-02-25 02:10:00,
2013-02-24 18:15:00,42.5,38.9,29.98,East,90,0.7,3.4,87,0.01,,,0.01,WUHU216HW,2013-02-25 02:15:00,
2013-02-24 18:20:00,42.5,38.9,29.98,SSW,203,0.0,3.8,87,0.01,,,0.01,WUHU216HW,2013-02-25 02:20:00,
2013-02-24 18:25:00,42.3,38.7,29.98,ENE,68,1.1,3.8,87,0.01,,,0.01,WUHU216HW,2013-02-25 02:25:00,
2013-02-24 18:30:00,42.1,38.5,29.97,ESE,113,0.7,1.1,87,0.01,,,0.01,WUHU216HW,2013-02-25 02:30:00,
2013-02-24 18:35:00,41.9,38.4,29.97,ESE,113,0.2,1.1,87,0.01,,,0.01,WUHU216HW,2013-02-25 02:35:00,
2013-02-24 18:40:00,41.9,39.0,29.97,SE,135,0.9,1.1,89,0.01,,,0.01,WUHU216HW,2013-02-25 02:40:00,
2013-02-24 18:45:00,41.8,38.4,29.97,SSE,158,0.0,0.9,88,0.00,,,0.01,WUHU216HW,2013-02-25 02:45:00,
2013-02-24 18:50:00,41.8,39.1,29.96,NE,45,0.0,1.3,90,0.00,,,0.01,WUHU216HW,2013-02-25 02:50:00,
2013-02-24 18:55:00,41.6,38.3,29.96,NE,45,0.0,1.3,88,0.00,,,0.01,WUHU216HW,2013-02-25 02:55:00,
2013-02-24 19:00:00,41.6,38.6,29.96,SE,135,0.2,0.7,89,0.00,,,0.01,WUHU216HW,2013-02-25 03:00:00,
2013-02-24 19:05:00,41.6,38.6,29.96,SSE,158,0.0,0.7,89,0.00,,,0.01,WUHU216HW,2013-02-25 03:05:00,
2013-02-24 19:10:00,41.4,38.4,29.95,SSW,203,0.4,1.1,89,0.00,,,0.01,WUHU216HW,2013-02-25 03:10:00,
2013-02-24 19:15:00,41.4,38.1,29.95,SE,135,0.0,1.1,88,0.00,,,0.01,WUHU216HW,2013-02-25 03:15:00,
2013-02-24 19:20:00,41.4,38.4,29.95,SW,225,0.0,0.9,89,0.00,,,0.01,WUHU216HW,2013-02-25 03:20:00,
2013-02-24 19:25:00,41.4,39.0,29.95,NE,45,0.9,1.1,91,0.00,,,0.01,WUHU216HW,2013-02-25 03:25:00,
2013-02-24 19:30:00,41.2,38.5,29.95,East,90,0.0,1.1,90,0.00,,,0.01,WUHU216HW,2013-02-25 03:30:00,
2013-02-24 19:35:00,41.2,38.5,29.94,East,90,0.0,0.7,90,0.00,,,0.01,WUHU216HW,2013-02-25 03:35:00,
2013-02-24 19:40:00,41.2,38.5,29.95,East,90,0.0,0.0,90,0.00,,,0.01,WUHU216HW,2013-02-25 03:40:00,
2013-02-24 19:45:00,41.0,38.3,29.94,SE,135,0.0,0.9,90,0.00,,,0.01,WUHU216HW,2013-02-25 03:45:00,
2013-02-24 19:50:00,41.0,38.3,29.93,South,180,0.0,0.9,90,0.00,,,0.01,WUHU216HW,2013-02-25 03:50:00,
2013-02-24 19:55:00,41.0,38.3,29.93,SW,225,1.1,1.1,90,0.00,,,0.01,WUHU216HW,2013-02-25 03:55:00,
2013-02-24 20:00:00,41.0,38.3,29.93,South,180,0.7,1.1,90,0.00,,,0.01,WUHU216HW,2013-02-25 04:00:00,
2013-02-24 20:05:00,40.9,38.2,29.92,SSW,203,1.1,1.1,90,0.00,,,0.01,WUHU216HW,2013-02-25 04:05:00,
2013-02-24 20:10:00,40.7,38.0,29.92,SSW,203,0.7,1.3,90,0.00,,,0.01,WUHU216HW,2013-02-25 04:10:00,
2013-02-24 20:15:00,40.7,38.0,29.92,SSE,158,0.4,1.6,90,0.00,,,0.01,WUHU216HW,2013-02-25 04:15:00,
2013-02-24 20:20:00,40.7,38.0,29.91,SSE,158,0.0,1.6,90,0.00,,,0.01,WUHU216HW,2013-02-25 04:20:00,
2013-02-24 20:25:00,40.7,38.0,29.91,SSE,158,0.4,0.4,90,0.00,,,0.01,WUHU216HW,2013-02-25 04:25:00,
2013-02-24 20:30:00,40.5,37.8,29.91,SE,135,0.0,0.9,90,0.00,,,0.01,WUHU216HW,2013-02-25 04:30:00,
2013-02-24 20:35:00,40.5,37.8,29.91,SE,135,0.0,0.9,90,0.00,,,0.01,WUHU216HW,2013-02-25 04:35:00,
2013-02-24 20:40:00,40.3,37.6,29.91,SSW,203,0.0,0.4,90,0.00,,,0.01,WUHU216HW,2013-02-25 04:40:00,
2013-02-24 20:45:00,40.5,37.8,29.90,SSW,203,0.2,0.4,90,0.00,,,0.01,WUHU216HW,2013-02-25 04:45:00,
2013-02-24 20:50:00,40.5,37.8,29.90,South,180,0.0,0.7,90,0.00,,,0.01,WUHU216HW,2013-02-25 04:50:00,
2013-02-24 20:55:00,40.3,37.9,29.90,SSE,158,0.4,0.7,91,0.00,,,0.01,WUHU216HW,2013-02-25 04:55:00,
2013-02-24 21:00:00,40.3,37.6,29.90,SSW,203,0.7,0.7,90,0.00,,,0.01,WUHU216HW,2013-02-25 05:00:00,
2013-02-24 21:05:00,40.3,37.6,29.90,South,180,0.0,0.7,90,0.00,,,0.01,WUHU216HW,2013-02-25 05:05:00,
2013-02-24 21:10:00,40.3,37.9,29.89,South,180,0.0,0.4,91,0.00,,,0.01,WUHU216HW,2013-02-25 05:10:00,
2013-02-24 21:15:00,40.3,37.9,29.89,South,180,0.0,0.2,91,0.00,,,0.01,WUHU216HW,2013-02-25 05:15:00,
2013-02-24 21:20:00,40.3,37.6,29.89,South,180,0.0,0.2,90,0.00,,,0.01,WUHU216HW,2013-02-25 05:20:00,
2013-02-24 21:25:00,40.1,37.7,29.89,South,180,0.7,0.9,91,0.00,,,0.01,WUHU216HW,2013-02-25 05:25:00,
2013-02-24 21:30:00,40.1,37.7,29.88,SSE,158,0.0,0.9,91,0.00,,,0.01,WUHU216HW,2013-02-25 05:30:00,
2013-02-24 21:35:00,40.1,37.7,29.88,SSW,203,0.0,0.4,91,0.00,,,0.01,WUHU216HW,2013-02-25 05:35:00,
2013-02-24 21:40:00,40.1,37.7,29.88,South,180,0.4,0.7,91,0.00,,,0.01,WUHU216HW,2013-02-25 05:40:00,
2013-02-24 21:45:00,40.1,37.7,29.88,SSE,158,1.1,1.1,91,0.00,,,0.01,WUHU216HW,2013-02-25 05:45:00,
2013-02-24 21:50:00,40.1,37.7,29.88,South,180,0.0,1.1,91,0.00,,,0.01,WUHU216HW,2013-02-25 05:50:00,
2013-02-24 21:55:00,40.0,37.5,29.87,South,180,0.0,1.1,91,0.00,,,0.01,WUHU216HW,2013-02-25 05:55:00,
2013-02-24 22:00:00,40.0,37.5,29.86,South,180,0.0,0.4,91,0.00,,,0.01,WUHU216HW,2013-02-25 06:00:00,
2013-02-24 22:05:00,40.0,37.5,29.86,SSE,158,0.9,0.9,91,0.00,,,0.01,WUHU216HW,2013-02-25 06:05:00,
2013-02-24 22:10:00,40.0,37.5,29.86,South,180,0.4,0.9,91,0.00,,,0.01,WUHU216HW,2013-02-25 06:10:00,
2013-02-24 22:15:00,40.0,37.8,29.86,SSE,158,1.1,1.1,92,0.00,,,0.01,WUHU216HW,2013-02-25 06:15:00,
2013-02-24 22:20:00,40.0,37.8,29.85,SSW,203,1.8,1.8,92,0.00,,,0.01,WUHU216HW,2013-02-25 06:20:00,
2013-02-24 22:25:00,40.0,37.5,29.85,SW,225,0.2,1.8,91,0.00,,,0.01,WUHU216HW,2013-02-25 06:25:00,
2013-02-24 22:30:00,40.0,37.8,29.85,SSE,158,0.9,1.1,92,0.00,,,0.01,WUHU216HW,2013-02-25 06:30:00,
2013-02-24 22:35:00,40.0,37.5,29.85,South,180,0.0,1.1,91,0.00,,,0.01,WUHU216HW,2013-02-25 06:35:00,
2013-02-24 22:40:00,39.8,37.6,29.85,SSE,158,0.0,0.4,92,0.00,,,0.01,WUHU216HW,2013-02-25 06:40:00,
2013-02-24 22:45:00,39.8,37.4,29.85,SSE,158,0.0,0.4,91,0.00,,,0.01,WUHU216HW,2013-02-25 06:45:00,
2013-02-24 22:50:00,39.8,37.4,29.84,SSW,203,0.0,0.0,91,0.00,,,0.01,WUHU216HW,2013-02-25 06:50:00,
2013-02-24 22:55:00,39.8,37.6,29.84,WNW,293,0.0,0.0,92,0.00,,,0.01,WUHU216HW,2013-02-25 06:55:00,
2013-02-24 23:00:00,39.8,37.9,29.84,NE,45,1.6,1.6,93,0.00,,,0.01,WUHU216HW,2013-02-25 07:00:00,
2013-02-24 23:05:00,40.0,38.1,29.83,NNW,338,0.4,1.6,93,0.00,,,0.01,WUHU216HW,2013-02-25 07:05:00,
2013-02-24 23:10:00,40.0,38.1,29.82,SW,225,2.2,2.2,93,0.00,,,0.01,WUHU216HW,2013-02-25 07:10:00,
2013-02-24 23:15:00,40.0,38.1,29.81,SSE,158,0.0,2.2,93,0.00,,,0.01,WUHU216HW,2013-02-25 07:15:00,
2013-02-24 23:20:00,40.0,38.1,29.81,WSW,248,0.7,2.0,93,0.00,,,0.01,WUHU216HW,2013-02-25 07:20:00,
2013-02-24 23:25:00,40.1,38.3,29.81,SSW,203,0.7,3.1,93,0.00,,,0.01,WUHU216HW,2013-02-25 07:25:00,
2013-02-24 23:30:00,40.1,38.3,29.81,SSW,203,0.7,3.1,93,0.00,,,0.01,WUHU216HW,2013-02-25 07:30:00,
2013-02-24 23:35:00,40.1,38.0,29.80,WSW,248,0.0,1.1,92,0.00,,,0.01,WUHU216HW,2013-02-25 07:35:00,
2013-02-24 23:40:00,40.1,38.0,29.81,East,90,0.4,0.7,92,0.00,,,0.01,WUHU216HW,2013-02-25 07:40:00,
2013-02-24 23:45:00,40.0,38.1,29.81,East,90,0.7,1.1,93,0.00,,,0.01,WUHU216HW,2013-02-25 07:45:00,
2013-02-24 23:50:00,40.1,38.3,29.80,ENE,68,1.1,1.1,93,0.00,,,0.01,WUHU216HW,2013-02-25 07:50:00,
2013-02-24 23:55:00,40.1,38.3,29.80,SSW,203,1.1,1.8,93,0.00,,,0.01,WUHU216HW,2013-02-25 07:55:00,